Weather History for KCBF - April, 2014

Change the Weather History Date:

Tuesday, April 15, 2014

  Actual Average (KOMA) Record (KOMA)
Temperature  
Mean Temperature 38 °F 52 °F  
Max Temperature 51 °F 64 °F 92 °F (2002)
Min Temperature 24 °F 40 °F 22 °F (2014)
Degree Days  
Heating Degree Days 28 14  
Month to date heating degree days 246  
Since 1 July heating degree days 5835  
Cooling Degree Days 0 0  
Month to date cooling degree days 0  
Year to date cooling degree days 1  
Moisture  
Dew Point 24 °F    
Average Humidity 60    
Maximum Humidity 86    
Minimum Humidity 37    
Precipitation  
Precipitation 0.00 in 0.09 in 1.91 in (1973)
Month to date precipitation 1.31  
Year to date precipitation 4.87  
Snow  
Snow 0.00 in 0.00 in - ()
Month to date snowfall 0.7  
Since 1 July snowfall 26.1  
Snow Depth -    
Sea Level Pressure  
Sea Level Pressure 30.06 in    
Wind  
Wind Speed 8 mph (SE)    
Max Wind Speed 22 mph    
Max Gust Speed 29 mph    
Visibility 10 miles    
Events      
T = Trace of Precipitation, MM = Missing Value Source: NWS Daily Summary

Daily Weather History Graph

Daily Weather History Graph

Search for Another Location

Airport or City:

Trip Planner

Search our weather history database for the weather conditions in past years. The results will help you decide how hot, cold, wet, or windy it might be!

Date:

Astronomy

Apr. 15, 2014 Rise Set
Actual Time 6:43 AM CDT 8:03 PM CDT
Civil Twilight 6:14 AM CDT 8:31 PM CDT
Nautical Twilight 5:40 AM CDT 9:06 PM CDT
Astronomical Twilight 5:04 AM CDT 9:42 PM CDT
Moon 8:45 PM CDT (4/15) 6:52 AM CDT (4/15)
Length of Visible Light 14h 17m
Length of Day
13h 19m
Full, 100% of the Moon is Illuminated
Apr 15
Full
Apr 22
Last Quarter
Apr 29
New
May 6
First Quarter
May 14
Full

Hourly Weather History & Observations

Time (CDT) Temp. Windchill Dew Point Humidity Pressure Visibility Wind Dir Wind Speed Gust Speed Precip Events Conditions
12:15 AM 32.0 °F 26.4 °F 23.0 °F 69% 30.16 in 10.0 mi North 5.8 mph - N/A   Overcast
12:35 AM 30.2 °F 26.7 °F 23.0 °F 75% 30.16 in 10.0 mi North 3.5 mph - N/A   Overcast
12:55 AM 30.2 °F 25.4 °F 23.0 °F 75% 30.16 in 10.0 mi North 4.6 mph - N/A   Mostly Cloudy
1:15 AM 30.2 °F 25.4 °F 23.0 °F 75% 30.16 in 10.0 mi North 4.6 mph - N/A   Partly Cloudy
1:35 AM 30.2 °F 25.4 °F 23.0 °F 75% 30.16 in 10.0 mi NNW 4.6 mph - N/A   Clear
1:55 AM 30.2 °F 25.4 °F 21.2 °F 69% 30.17 in 10.0 mi NNW 4.6 mph - N/A   Clear
2:15 AM 30.2 °F 25.4 °F 19.4 °F 64% 30.17 in 10.0 mi NNW 4.6 mph - N/A   Clear
2:35 AM 30.2 °F 25.4 °F 19.4 °F 64% 30.17 in 10.0 mi NNW 4.6 mph - N/A   Clear
2:55 AM 28.4 °F 23.3 °F 17.6 °F 64% 30.17 in 10.0 mi NNW 4.6 mph - N/A   Clear
3:15 AM 28.4 °F 24.6 °F 17.6 °F 64% 30.17 in 10.0 mi NW 3.5 mph - N/A   Clear
3:35 AM 28.4 °F 23.3 °F 19.4 °F 69% 30.17 in 10.0 mi NW 4.6 mph - N/A   Clear
3:55 AM 28.4 °F - 19.4 °F 69% 30.17 in 10.0 mi Calm Calm - N/A   Clear
4:15 AM 28.4 °F 22.2 °F 19.4 °F 69% 30.17 in 10.0 mi NNW 5.8 mph - N/A   Clear
4:35 AM 26.6 °F 21.2 °F 21.2 °F 80% 30.17 in 10.0 mi North 4.6 mph - N/A   Clear
4:55 AM 26.6 °F 21.2 °F 19.4 °F 74% 30.17 in 10.0 mi NNW 4.6 mph - N/A   Clear
5:15 AM 26.6 °F 20.0 °F 19.4 °F 74% 30.17 in 10.0 mi NNW 5.8 mph - N/A   Clear
5:35 AM 26.6 °F 22.6 °F 19.4 °F 74% 30.17 in 10.0 mi NNE 3.5 mph - N/A   Clear
5:55 AM 24.8 °F 19.1 °F 19.4 °F 80% 30.17 in 10.0 mi NNE 4.6 mph - N/A   Clear
6:15 AM 24.8 °F 16.9 °F 17.6 °F 74% 30.16 in 10.0 mi NNE 6.9 mph - N/A   Clear
6:35 AM 24.8 °F 16.9 °F 19.4 °F 80% 30.17 in 10.0 mi North 6.9 mph - N/A   Clear
6:55 AM 24.8 °F 16.9 °F 17.6 °F 74% 30.18 in 10.0 mi North 6.9 mph - N/A   Clear
7:15 AM 24.8 °F 16.9 °F 19.4 °F 80% 30.18 in 10.0 mi North 6.9 mph - N/A   Clear
7:35 AM 24.8 °F 20.5 °F 21.2 °F 86% 30.18 in 10.0 mi NNE 3.5 mph - N/A   Clear
7:55 AM 26.6 °F - 21.2 °F 80% 30.19 in 10.0 mi Calm Calm - N/A   Clear
8:15 AM 28.4 °F 22.2 °F 21.2 °F 74% 30.19 in 10.0 mi NE 5.8 mph - N/A   Clear
8:35 AM 28.4 °F 20.4 °F 21.2 °F 74% 30.18 in 10.0 mi ENE 8.1 mph - N/A   Clear
8:55 AM 28.4 °F 19.7 °F 23.0 °F 80% 30.18 in 10.0 mi East 9.2 mph - N/A   Clear
9:15 AM 30.2 °F 24.3 °F 23.0 °F 75% 30.18 in 10.0 mi ENE 5.8 mph - N/A   Clear
9:35 AM 30.2 °F 23.4 °F 23.0 °F 75% 30.18 in 10.0 mi ESE 6.9 mph - N/A   Clear
9:55 AM 32.0 °F 27.5 °F 23.0 °F 69% 30.19 in 10.0 mi SE 4.6 mph - N/A   Clear
10:15 AM 32.0 °F 27.5 °F 23.0 °F 69% 30.18 in 10.0 mi Variable 4.6 mph - N/A   Clear
10:35 AM 33.8 °F 29.6 °F 21.2 °F 60% 30.18 in 10.0 mi SE 4.6 mph - N/A   Clear
10:55 AM 35.6 °F - 23.0 °F 60% 30.17 in 10.0 mi Calm Calm - N/A   Clear
11:35 AM 37.4 °F 32.1 °F 21.2 °F 52% 30.17 in 10.0 mi Variable 6.9 mph 12.7 mph N/A   Clear
11:55 AM 39.2 °F 33.0 °F 23.0 °F 52% 30.15 in 10.0 mi SSE 9.2 mph - N/A   Clear
12:35 PM 41.0 °F 35.8 °F 21.2 °F 45% 30.13 in 10.0 mi SSE 8.1 mph 13.8 mph N/A   Clear
1:15 PM 42.8 °F 39.3 °F 21.2 °F 42% 30.11 in 10.0 mi Variable 5.8 mph 16.1 mph N/A   Clear
1:35 PM 42.8 °F 36.2 °F 23.0 °F 46% 30.09 in 10.0 mi South 12.7 mph - N/A   Clear
1:55 PM 44.6 °F 38.4 °F 23.0 °F 43% 30.09 in 10.0 mi SSE 12.7 mph - N/A   Clear
2:15 PM 44.6 °F 37.2 °F 23.0 °F 43% 30.07 in 10.0 mi SSE 17.3 mph 23.0 mph N/A   Clear
2:35 PM 46.4 °F 42.4 °F 24.8 °F 43% 30.06 in 10.0 mi SSE 8.1 mph 16.1 mph N/A   Clear
2:55 PM 46.4 °F 40.1 °F 21.2 °F 37% 30.05 in 10.0 mi South 15.0 mph - N/A   Clear
3:15 PM 48.2 °F - 23.0 °F 37% 30.04 in 10.0 mi SSW 13.8 mph - N/A   Clear
3:35 PM 48.2 °F - 24.8 °F 40% 30.02 in 10.0 mi SSW 17.3 mph - N/A   Clear
3:55 PM 48.2 °F - 24.8 °F 40% 30.00 in 10.0 mi South 16.1 mph 24.2 mph N/A   Clear
4:15 PM 48.2 °F - 24.8 °F 40% 29.99 in 10.0 mi South 12.7 mph 23.0 mph N/A   Clear
4:35 PM 50.0 °F - 24.8 °F 37% 29.98 in 10.0 mi South 15.0 mph 21.9 mph N/A   Clear
4:55 PM 50.0 °F - 26.6 °F 40% 29.97 in 10.0 mi SSE 18.4 mph - N/A   Clear
5:15 PM 50.0 °F - 26.6 °F 40% 29.96 in 10.0 mi SSE 20.7 mph - N/A   Clear
5:35 PM 50.0 °F - 26.6 °F 40% 29.95 in 10.0 mi South 19.6 mph - N/A   Clear
5:55 PM 51.8 °F - 28.4 °F 41% 29.94 in 10.0 mi SSE 17.3 mph - N/A   Clear
6:15 PM 50.0 °F - 28.4 °F 43% 29.94 in 10.0 mi SSE 15.0 mph 24.2 mph N/A   Clear
6:35 PM 50.0 °F - 28.4 °F 43% 29.93 in 10.0 mi SSE 17.3 mph 24.2 mph N/A   Clear
6:55 PM 50.0 °F - 30.2 °F 47% 29.91 in 10.0 mi SSE 15.0 mph 23.0 mph N/A   Clear
7:15 PM 50.0 °F - 30.2 °F 47% 29.90 in 10.0 mi SSE 18.4 mph - N/A   Clear
7:35 PM 48.2 °F - 30.2 °F 50% 29.89 in 10.0 mi SSE 19.6 mph - N/A   Clear
7:55 PM 48.2 °F - 30.2 °F 50% 29.88 in 10.0 mi SSE 15.0 mph 24.2 mph N/A   Clear
8:15 PM 46.4 °F 39.2 °F 30.2 °F 53% 29.88 in 10.0 mi SSE 18.4 mph - N/A   Clear
8:35 PM 44.6 °F 37.4 °F 32.0 °F 61% 29.87 in 10.0 mi SSE 16.1 mph - N/A   Scattered Clouds
8:55 PM 44.6 °F 37.4 °F 32.0 °F 61% 29.88 in 10.0 mi SSE 16.1 mph - N/A   Overcast
9:15 PM 44.6 °F 36.9 °F 32.0 °F 61% 29.88 in 10.0 mi SE 18.4 mph - N/A   Overcast
9:35 PM 44.6 °F 37.4 °F 32.0 °F 61% 29.88 in 10.0 mi SE 16.1 mph 23.0 mph N/A   Overcast
9:55 PM 44.6 °F 37.2 °F 32.0 °F 61% 29.88 in 10.0 mi SE 17.3 mph - N/A   Mostly Cloudy
10:15 PM 42.8 °F 34.8 °F 32.0 °F 66% 29.88 in 10.0 mi SSE 17.3 mph 24.2 mph N/A   Mostly Cloudy
10:35 PM 44.6 °F 36.6 °F 32.0 °F 61% 29.87 in 10.0 mi SSE 19.6 mph 25.3 mph N/A   Mostly Cloudy
10:55 PM 44.6 °F 36.4 °F 32.0 °F 61% 29.86 in 10.0 mi SSE 20.7 mph 28.8 mph N/A   Mostly Cloudy
11:15 PM 44.6 °F 36.1 °F 32.0 °F 61% 29.85 in 10.0 mi SSE 21.9 mph 28.8 mph N/A   Mostly Cloudy
11:35 PM 44.6 °F 36.6 °F 32.0 °F 61% 29.85 in 10.0 mi SSE 19.6 mph 27.6 mph N/A   Mostly Cloudy
11:55 PM 44.6 °F 36.9 °F 32.0 °F 61% 29.84 in 10.0 mi SSE 18.4 mph 27.6 mph N/A   Overcast